Regional Weather Roundup
Issued by NWS

Home | Current Version | Previous Version | Graphics & Text | Print | Product List | Glossary On
Versions: 1 2 3 4 5 6 7 8 9 10 11 12 13 14 15 16 17 18 19 20 21 22 23 24 25 26 27 28 29 30 31 32 33 34 35 36 37 38 39 40 41 42 43 44 45 46 47 48 49 50
939
ASUS45 KBOU 261807
RWRCO

WEATHER ROUNDUP FOR COLORADO
NATIONAL WEATHER SERVICE DENVER/BOULDER CO
1200 PM MDT SUN MAR 26 2017

NOTE: "FAIR" INDICATES FEW OR NO CLOUDS BELOW 12000 FEET WITH NO
SIGNIFICANT WEATHER AND/OR OBSTRUCTIONS TO VISIBILITY.

COZ001>005-013-030-031-261900-
...NORTHWEST COLORADO...

CITY           SKY/WX    TMP DP  RH WIND       PRES   REMARKS
CRAIG          CLOUDY    43  27  53 SW10      30.03R
HAYDEN         CLOUDY    37  27  65 SW7       30.03R
MEEKER         CLOUDY    46  27  47 N6        30.02S
MOUNT WERNER   NOT AVBL
STEAMBOAT SPGS CLOUDY    35  31  85 SW7       30.02R WCI  29
WALDEN         NOT AVBL
$$

COZ006>008-011-261900-
...WEST CENTRAL VALLEYS...

CITY           SKY/WX    TMP DP  RH WIND       PRES   REMARKS
GRAND JUNCTION CLOUDY    53  32  44 MISG      29.98S
MONTROSE       CLOUDY    50  36  58 NW9       30.00S
EAGLE          PTSUNNY   46  28  49 CALM      29.97S
RIFLE          FAIR      53  28  38 NW9       29.98S
DELTA          CLOUDY    59  32  35 W14G25    29.96F
NUCLA          FAIR      48  34  57 CALM      30.04S
$$

COZ017>023-064>068-261900-
...SOUTHWEST COLORADO...

CITY           SKY/WX    TMP DP  RH WIND       PRES   REMARKS
DURANGO        FAIR      47  31  53 VRB3      29.97R
CORTEZ         CLOUDY    48  39  71 VRB6      30.01R
PAGOSA SPRINGS CLOUDY    41  30  65 S3        30.00R
TELLURIDE      CLOUDY    35  29  79 W9        30.05R WCI  28
WOLF CREEK PAS CLOUDY    28  21  74 CALM      30.08R
$$

COZ009-010-012-014-032>034-037-058>063-261900-
...CENTRAL COLORADO...

CITY           SKY/WX    TMP DP  RH WIND       PRES   REMARKS
ASPEN          PTSUNNY   44  31  60 CALM      29.96R
BUENA VISTA    FAIR      51  15  23 NW20G29   29.89R
COPPER MTN     NOT AVBL
BERTHOUD PASS  CLOUDY    21  10  63 N5G17     30.01R WCI  15
COTTONWOOD PAS CLOUDY    45  16  31 W9        29.95R
GUNNISON       FAIR      46  30  53 SW13      29.95S
KREMMLING      FAIR      52  32  46 SW9G16    29.97R
LEADVILLE      CLOUDY    35  17  47 NW10      29.96R WCI  27
MONARCH PASS   CLOUDY    28  27  93 W9        30.12R FOG     WCI  20
SALIDA         CLOUDY    55  17  22 N8        29.95R
SUNLIGHT       CLOUDY   N/A N/A N/A W7        30.07R FOG
WILKERSON PASS LGT SNOW  30  27  86 NE5       30.01R WCI  25
$$

COZ069>075-261900-
...SAN LUIS VALLEY/SANGRE DE CRISTO MOUNTAINS...

CITY           SKY/WX    TMP DP  RH WIND       PRES   REMARKS
ALAMOSA        PTSUNNY   46  37  71 E6        29.90S
LA VETA PASS   NOT AVBL
SAGUACHE       FAIR      48  28  46 N14G22    29.91S
$$

COZ035-036-038>040-261900-
...NORTHERN COLORADO FRONT RANGE...

CITY           SKY/WX    TMP DP  RH WIND       PRES   REMARKS
DENVER INTL AP PTSUNNY   50  35  56 NE15      29.89S
DMNS CITY PARK   N/A     50  35  55 N14G23    29.90S
AURORA         PTSUNNY   50  34  54 NE16G24   29.90F
FRONT RANGE AP PTSUNNY   50  32  50 N15G24    29.91R
ERIE MUNI ARPT CLOUDY    52  35  52 NE13      29.90S
BOULDER MUN AP CLOUDY    52  34  50 NE9       29.89F
CENTENNIAL     CLOUDY    47  35  63 N16       29.90S
BROOMFIELD     CLOUDY    50  36  57 N7        29.91S
FORT COLLINS   FAIR      54  36  50 NE13      29.90R
LONGMONT       LGT RAIN  54  39  58 NE7       29.91S
$$

COZ041-046-047-076>085-087-088-261900-
...PIKES PEAK/PALMER DIVIDE AND SOUTHERN FOOTHILLS...

CITY           SKY/WX    TMP DP  RH WIND       PRES   REMARKS
COLO. SPRINGS  PTSUNNY   47  32  56 N26G39    29.88R
A. F. ACADEMY  FAIR      44  33  66 NW25G33   29.88S
SCHRIEVER AFB  FAIR      46  33  58 N24G36    29.88R
ELLICOTT         N/A    N/A N/A N/A N23G33    29.86R
FALCON         FAIR      42  32  66 N22G30    29.89S
FORT CARSON    FAIR      50  34  54 N23G37    29.85R
LIMON          CLOUDY    45  38  76 N20       29.88R
MONUMENT HILL  CLOUDY    39  32  75 N16       29.93S
TRINIDAD       CLOUDY    46  39  76 N18G25    29.86S
$$

COZ042>045-048>051-090-091-261900-
...NORTHEAST COLORADO...

CITY           SKY/WX    TMP DP  RH WIND       PRES   REMARKS
GREELEY ARPT   LGT RAIN  47  39  74 N14       29.91S
AKRON          FAIR      48  36  63 N15       29.89S
BURLINGTON     PTSUNNY   49  41  74 E13G20    29.86R
WRAY           NOT AVBL
STERLING       LGT RAIN  45  41  87 N3        29.89S
HOLYOKE        FAIR      54  45  71 N7        29.90S
FORT MORGAN    CLOUDY    50  33  52 SE5       29.91S
$$

COZ086-089-092>099-261900-
...SOUTHEAST COLORADO...

CITY           SKY/WX    TMP DP  RH WIND       PRES   REMARKS
PUEBLO         CLOUDY    56  33  42 N18       29.84R
LA JUNTA       CLOUDY    46  37  71 N13       29.83R
LAMAR          CLOUDY    40  37  89 NE8       29.81S FOG
SPRINGFIELD      N/A     48  34  58 NW26G35   29.77R
$$




USA.gov is the U.S. government's official web portal to all federal, state and local government web resources and services.